Weather History for Pampa, TX

Change the Weather History Date:

Monday, December 9, 2013

  Actual Average Record
Temperature  
Mean Temperature 14 °F -  
Max Temperature 21 °F 48 °F 76 °F (1970)
Min Temperature 8 °F 24 °F 0 °F (1978)
Degree Days  
Heating Degree Days 50    
Moisture  
Dew Point 7 °F    
Average Humidity 70    
Maximum Humidity 83    
Minimum Humidity 55    
Precipitation  
Precipitation 0.00 in - - ()
Sea Level Pressure  
Sea Level Pressure 30.20 in    
Wind  
Wind Speed 9 mph (North)    
Max Wind Speed 13 mph    
Max Gust Speed -    
Visibility 10 miles    
Events      
Averages and records for this station are not official NWS values.
T = Trace of Precipitation, MM = Missing Value Source: NWS Daily Summary

Daily Weather History Graph

Daily Weather History Graph

Search for Another Location

Airport:

Trip Planner

Search our weather history database for the weather conditions in past years. The results will help you decide how hot, cold, wet, or windy it might be!

Date:

Astronomy

Dec. 09, 2013 Rise Set
Actual Time 7:42 AM CST 5:30 PM CST
Civil Twilight 7:13 AM CST 5:59 PM CST
Nautical Twilight 6:42 AM CST 6:30 PM CST
Astronomical Twilight 6:11 AM CST 7:01 PM CST
Moon 12:48 PM CST (12/9) 12:11 AM CST (12/9)
Length of Visible Light 10h 45m
Length of Day
9h 48m
Waxing Crescent, 51% of the Moon is Illuminated
Dec 9
Waxing Crescent
Dec 17
Full
Dec 25
Last Quarter
Jan 1
New
Jan 7
First Quarter

Hourly Weather History & Observations

Time (CST) Temp. Windchill Dew Point Humidity Pressure Visibility Wind Dir Wind Speed Gust Speed Precip Events Conditions
12:15 AM 15.8 °F 2.7 °F 10.8 °F 80% 30.09 in 10.0 mi NNE 11.5 mph - N/A   Mostly Cloudy
12:35 AM 15.4 °F 3.0 °F 10.2 °F 80% 30.08 in 10.0 mi NNE 10.4 mph - N/A   Scattered Clouds
12:55 AM 15.3 °F 4.4 °F 10.8 °F 82% 30.09 in 10.0 mi NNE 8.1 mph - N/A   Mostly Cloudy
1:15 AM 15.6 °F 3.2 °F 11.3 °F 83% 30.10 in 10.0 mi NE 10.4 mph - N/A   Overcast
1:35 AM 15.8 °F 6.1 °F 11.5 °F 83% 30.10 in 10.0 mi NE 6.9 mph - N/A   Overcast
1:55 AM 15.8 °F 5.1 °F 10.6 °F 80% 30.11 in 10.0 mi NE 8.1 mph - N/A   Scattered Clouds
2:15 AM 15.6 °F 4.9 °F 10.2 °F 79% 30.11 in 10.0 mi NE 8.1 mph - N/A   Scattered Clouds
2:35 AM 15.8 °F 6.1 °F 9.9 °F 77% 30.12 in 10.0 mi NNE 6.9 mph - N/A   Scattered Clouds
2:55 AM 15.8 °F 7.2 °F 9.5 °F 76% 30.12 in 10.0 mi NNE 5.8 mph - N/A   Scattered Clouds
3:15 AM 15.8 °F 4.2 °F 9.5 °F 76% 30.12 in 10.0 mi NNE 9.2 mph - N/A   Scattered Clouds
3:35 AM 15.8 °F 5.1 °F 8.6 °F 73% 30.13 in 10.0 mi NE 8.1 mph - N/A   Scattered Clouds
3:55 AM 15.8 °F 3.4 °F 8.4 °F 73% 30.14 in 10.0 mi NNE 10.4 mph - N/A   Scattered Clouds
4:35 AM 15.4 °F 3.0 °F 7.7 °F 71% 30.12 in 10.0 mi NE 10.4 mph - N/A   Clear
4:55 AM 15.3 °F 2.8 °F 7.7 °F 72% 30.13 in 10.0 mi NE 10.4 mph - N/A   Clear
5:15 AM 15.3 °F 3.5 °F 7.3 °F 71% 30.14 in 10.0 mi NNE 9.2 mph - N/A   Scattered Clouds
5:35 AM 15.4 °F 4.6 °F 7.2 °F 70% 30.16 in 10.0 mi NNE 8.1 mph - N/A   Mostly Cloudy
5:55 AM 15.6 °F 4.9 °F 6.8 °F 68% 30.17 in 10.0 mi NNE 8.1 mph - N/A   Mostly Cloudy
6:15 AM 15.4 °F 3.0 °F 6.4 °F 68% 30.17 in 10.0 mi NNE 10.4 mph - N/A   Scattered Clouds
6:35 AM 15.3 °F 1.4 °F 6.3 °F 68% 30.17 in 10.0 mi NNE 12.7 mph - N/A   Scattered Clouds
6:55 AM 15.1 °F 2.5 °F 6.3 °F 68% 30.17 in 10.0 mi NE 10.4 mph - N/A   Scattered Clouds
7:15 AM 15.1 °F 2.5 °F 6.4 °F 69% 30.18 in 10.0 mi NE 10.4 mph - N/A   Scattered Clouds
7:35 AM 14.9 °F 3.1 °F 6.4 °F 69% 30.18 in 10.0 mi NNE 9.2 mph - N/A   Scattered Clouds
7:55 AM 15.3 °F 3.5 °F 6.3 °F 68% 30.19 in 10.0 mi NNE 9.2 mph - N/A   Clear
8:15 AM 15.3 °F 2.8 °F 5.9 °F 67% 30.19 in 10.0 mi NE 10.4 mph - N/A   Scattered Clouds
8:35 AM 15.3 °F 2.8 °F 5.9 °F 67% 30.20 in 10.0 mi NE 10.4 mph - N/A   Scattered Clouds
8:55 AM 15.3 °F 2.8 °F 5.9 °F 67% 30.21 in 10.0 mi NE 10.4 mph - N/A   Scattered Clouds
9:15 AM 15.6 °F 3.2 °F 6.3 °F 67% 30.22 in 10.0 mi ENE 10.4 mph - N/A   Mostly Cloudy
9:35 AM 15.8 °F 4.2 °F 5.9 °F 65% 30.22 in 10.0 mi NE 9.2 mph - N/A   Overcast
9:55 AM 16.2 °F 3.9 °F 6.3 °F 65% 30.23 in 10.0 mi ENE 10.4 mph - N/A   Mostly Cloudy
10:15 AM 16.5 °F 5.1 °F 6.8 °F 66% 30.23 in 10.0 mi NNE 9.2 mph - N/A   Overcast
10:35 AM 16.7 °F 6.2 °F 6.8 °F 65% 30.23 in 10.0 mi NE 8.1 mph - N/A   Overcast
10:55 AM 17.2 °F 6.0 °F 7.0 °F 64% 30.23 in 10.0 mi NNE 9.2 mph - N/A   Overcast
11:15 AM 17.2 °F 6.0 °F 6.8 °F 64% 30.22 in 10.0 mi NE 9.2 mph - N/A   Overcast
11:35 AM 17.4 °F 6.2 °F 7.3 °F 65% 30.23 in 10.0 mi NNE 9.2 mph - N/A   Mostly Cloudy
11:55 AM 18.0 °F 7.7 °F 7.9 °F 65% 30.22 in 10.0 mi NNE 8.1 mph - N/A   Mostly Cloudy
12:15 PM 18.5 °F 7.5 °F 8.4 °F 65% 30.21 in 10.0 mi NNE 9.2 mph - N/A   Scattered Clouds
12:35 PM 18.9 °F 8.0 °F 8.6 °F 64% 30.20 in 10.0 mi NNE 9.2 mph - N/A   Mostly Cloudy
12:55 PM 18.9 °F 12.1 °F 8.4 °F 64% 30.19 in 10.0 mi NNE 4.6 mph - N/A   Overcast
1:15 PM 19.0 °F 9.0 °F 8.4 °F 63% 30.19 in 10.0 mi NNE 8.1 mph - N/A   Mostly Cloudy
1:35 PM 18.9 °F 10.8 °F 8.6 °F 64% 30.18 in 10.0 mi NE 5.8 mph - N/A   Mostly Cloudy
1:55 PM 19.4 °F 12.8 °F 9.0 °F 64% 30.17 in 10.0 mi North 4.6 mph - N/A   Mostly Cloudy
2:15 PM 19.4 °F 12.8 °F 8.6 °F 63% 30.17 in 10.0 mi North 4.6 mph - N/A   Mostly Cloudy
2:35 PM 19.0 °F 13.9 °F 8.1 °F 62% 30.17 in 10.0 mi North 3.5 mph - N/A   Overcast
3:15 PM 19.6 °F 10.6 °F 7.5 °F 60% 30.18 in 10.0 mi North 6.9 mph - N/A   Mostly Cloudy
3:55 PM 21.0 °F 14.6 °F 7.2 °F 55% 30.19 in 10.0 mi NW 4.6 mph - N/A   Mostly Cloudy
4:15 PM 20.7 °F 13.0 °F 6.8 °F 55% 30.19 in 10.0 mi NNW 5.8 mph - N/A   Scattered Clouds
4:35 PM 20.1 °F 13.6 °F 6.6 °F 56% 30.20 in 10.0 mi NNW 4.6 mph - N/A   Clear
5:15 PM 19.2 °F 10.2 °F 6.3 °F 57% 30.22 in 10.0 mi NW 6.9 mph - N/A   Scattered Clouds
5:35 PM 15.8 °F 7.2 °F 5.2 °F 63% 30.22 in 10.0 mi West 5.8 mph - N/A   Clear
5:55 PM 14.9 °F - 5.2 °F 65% 30.22 in 10.0 mi Calm Calm - N/A   Clear
6:15 PM 14.9 °F 7.5 °F 5.7 °F 67% 30.23 in 10.0 mi WNW 4.6 mph - N/A   Clear
6:35 PM 15.1 °F - 5.9 °F 67% 30.23 in 10.0 mi Calm Calm - N/A   Clear
6:55 PM 15.4 °F - 6.3 °F 67% 30.24 in 10.0 mi Calm Calm - N/A   Clear
7:15 PM 15.8 °F - 6.3 °F 66% 30.25 in 10.0 mi Calm Calm - N/A   Clear
7:35 PM 13.6 °F 7.7 °F 5.7 °F 71% 30.24 in 10.0 mi SW 3.5 mph - N/A   Clear
7:55 PM 10.8 °F 4.5 °F 3.9 °F 74% 30.25 in 10.0 mi WSW 3.5 mph - N/A   Clear
8:15 PM 13.1 °F 2.8 °F 4.1 °F 67% 30.26 in 10.0 mi WSW 6.9 mph - N/A   Clear
8:35 PM 12.2 °F 2.9 °F 5.7 °F 75% 30.27 in 10.0 mi WSW 5.8 mph - N/A   Clear
8:55 PM 10.2 °F 3.8 °F 4.3 °F 77% 30.27 in 10.0 mi WSW 3.5 mph - N/A   Clear
9:15 PM 8.4 °F -5.7 °F 2.8 °F 78% 30.27 in 10.0 mi WSW 10.4 mph - N/A   Clear
9:35 PM 12.2 °F -1.0 °F 6.4 °F 78% 30.28 in 10.0 mi West 10.4 mph - N/A   Clear
9:55 PM 12.7 °F -0.4 °F 7.2 °F 78% 30.27 in 10.0 mi WSW 10.4 mph - N/A   Clear
10:15 PM 14.5 °F 2.7 °F 8.4 °F 77% 30.29 in 10.0 mi West 9.2 mph - N/A   Clear
10:35 PM 12.9 °F 0.7 °F 7.0 °F 77% 30.29 in 10.0 mi West 9.2 mph - N/A   Clear
10:55 PM 15.3 °F 2.0 °F 8.4 °F 74% 30.29 in 10.0 mi WSW 11.5 mph - N/A   Clear
11:15 PM 15.3 °F 2.8 °F 8.4 °F 74% 30.30 in 10.0 mi WSW 10.4 mph - N/A   Clear
11:35 PM 14.7 °F 2.9 °F 8.1 °F 75% 30.30 in 10.0 mi WSW 9.2 mph - N/A   Clear
11:55 PM 12.9 °F 1.6 °F 6.8 °F 77% 30.30 in 10.0 mi SW 8.1 mph - N/A   Clear